Regional Weather Roundup
Issued by NWS Albany, NY

Home | Current Version | Previous Version | Text Only | Print | Product List | Glossary On
Versions: 1 2 3 4 5 6 7 8 9 10 11 12 13 14 15 16 17 18 19 20 21 22 23 24 25 26 27 28 29 30 31 32 33 34 35 36 37 38 39 40 41 42 43 44 45 46 47 48 49 50
000
ASUS41 KALY 221310
RWRALY

NEW YORK STATE HOURLY WEATHER ROUNDUP
NATIONAL WEATHER SERVICE ALBANY NY
900 AM EDT TUE MAY 22 2018

NOTE: "FAIR" INDICATES FEW OR NO CLOUDS BELOW 12,000 FEET WITH NO
SIGNIFICANT WEATHER AND/OR NO OBSTRUCTIONS TO VISIBILITY.

NYZ032-033-038>043-046>054-057>066-NYZ062>081-082-084-221400-
EAST


CITY           SKY/WX    TMP DP  RH WIND       PRES   REMARKS
ALBANY         LGT RAIN  62  51  67 VRB5      30.13F
GLENS FALLS    CLOUDY    58  53  84 CALM      30.13S
POUGHKEEPSIE   CLOUDY    62  54  74 VRB3      30.13F
NEWBURGH       DRIZZLE   63  57  82 CALM      30.16F
MONTGOMERY     CLOUDY    61  56  83 SW3       30.14F
WHITE PLAINS   FAIR      64  54  69 VRB3      30.16F
ISLIP          PTSUNNY   63  55  75 S7        30.18R
NEW YORK CITY  CLOUDY    69  52  54 CALM      30.16S
CENTRAL PARK   CLOUDY    68  53  58 CALM      30.19
$$

NYZ005>009-017-018-044>046-055-056-221400-
CENTRAL


CITY           SKY/WX    TMP DP  RH WIND       PRES   REMARKS
FULTON         LGT RAIN  57  54  89 CALM      30.08R FOG
SYRACUSE       LGT RAIN  57  56  96 E6        30.08R FOG
ROME           LGT RAIN  56  53  90 E6        30.12S
ELMIRA         RAIN      59  59 100 E5        30.07F FOG
BINGHAMTON     LGT RAIN  54  52  93 SE17G23   30.10S
$$

NYZ026>034-041>043-087-221400-
NORTH


CITY           SKY/WX    TMP DP  RH WIND       PRES   REMARKS
WATERTOWN      LGT RAIN  60  53  77 S6        30.07R
FORT DRUM      NOT AVBL
OGDENSBURG     FAIR      63  49  59 CALM      30.05F
MASSENA        PTSUNNY   64  51  62 NW3       30.07S
SARANAC LAKE   CLOUDY    56  48  74 CALM      30.10F
PLATTSBURGH    FAIR      58  49  72 S6        30.08F
$$

NYZ001>004-010>016-019>021-085-221400-
WEST


CITY           SKY/WX    TMP DP  RH WIND       PRES   REMARKS
NIAGARA FALLS  CLOUDY    62  58  86 S5        29.97S
BUFFALO        LGT RAIN  61  61 100 S8        29.98S FOG
DUNKIRK        RAIN      64  61  90 SW9       29.99S FOG
JAMESTOWN      CLOUDY    60  59  96 S9        30.04S
WELLSVILLE     PTSUNNY   60  59  96 CALM      30.07F
ROCHESTER      LGT RAIN  56  55  97 SE5       30.01F
PENN YAN       LGT RAIN  57  54  89 SW7       30.06F
$$

             KEY
       WCI = WIND CHILL INDEX
       VSB = VISIBILITY
       HX  = HEAT INDEX
$$



USA.gov is the U.S. government's official web portal to all federal, state and local government web resources and services.